Time,TemperatureF,DewpointF,PressureIn,WindDirection,WindDirectionDegrees,WindSpeedMPH,WindSpeedGustMPH,Humidity,HourlyPrecipIn,Conditions,Clouds,dailyrainin,SoftwareType,DateUTC
2013-06-10 00:02:00,75.4,73.2,30.10,SSE,161,0.0,7.0,93,0.00,,,0.02,meteohub,2013-06-10 04:02:00,
2013-06-10 00:07:00,75.4,73.2,30.10,SSE,161,0.0,6.0,93,0.00,,,0.00,meteohub,2013-06-10 04:07:00,
2013-06-10 00:12:00,75.4,73.2,30.10,SSE,161,4.0,6.0,93,0.00,,,0.00,meteohub,2013-06-10 04:12:00,
2013-06-10 00:17:00,75.4,73.2,30.10,SSE,164,0.0,7.0,93,0.00,,,0.00,meteohub,2013-06-10 04:17:00,
2013-06-10 00:22:00,75.4,73.2,30.10,SSE,164,4.0,7.0,93,0.00,,,0.00,meteohub,2013-06-10 04:22:00,
2013-06-10 00:27:00,75.4,73.2,30.11,SSE,164,1.0,7.0,93,0.00,,,0.00,meteohub,2013-06-10 04:27:00,
2013-06-10 00:32:00,75.4,73.2,30.11,SSE,164,0.0,6.0,93,0.00,,,0.00,meteohub,2013-06-10 04:32:00,
2013-06-10 00:37:00,75.2,73.0,30.10,SSE,164,0.0,5.0,93,0.00,,,0.00,meteohub,2013-06-10 04:37:00,
2013-06-10 00:42:00,75.0,72.9,30.11,SSE,164,0.0,5.0,93,0.00,,,0.00,meteohub,2013-06-10 04:42:00,
2013-06-10 00:52:00,75.0,72.9,30.11,SSE,164,0.0,6.0,93,0.00,,,0.00,meteohub,2013-06-10 04:52:00,
2013-06-10 01:02:00,74.8,73.0,30.11,SSE,164,0.0,4.0,94,0.00,,,0.00,meteohub,2013-06-10 05:02:00,
2013-06-10 01:07:00,74.8,72.7,30.11,SSE,164,1.0,4.0,93,0.00,,,0.00,meteohub,2013-06-10 05:07:00,
2013-06-10 01:12:00,74.8,73.0,30.11,SSE,164,0.0,4.0,94,0.00,,,0.00,meteohub,2013-06-10 05:12:00,
2013-06-10 01:22:00,74.7,72.9,30.11,SSE,164,0.0,4.0,94,0.00,,,0.00,meteohub,2013-06-10 05:22:00,
2013-06-10 01:27:00,74.5,72.7,30.10,SSE,164,0.0,2.0,94,0.00,,,0.00,meteohub,2013-06-10 05:27:00,
2013-06-10 01:37:00,74.3,72.9,30.10,SSE,164,0.0,4.0,95,0.00,,,0.00,meteohub,2013-06-10 05:37:00,
2013-06-10 01:42:00,74.1,72.7,30.10,SSE,164,0.0,4.0,95,0.00,,,0.00,meteohub,2013-06-10 05:42:00,
2013-06-10 01:52:00,73.9,72.5,30.10,SSE,164,0.0,0.0,95,0.00,,,0.00,meteohub,2013-06-10 05:52:00,
2013-06-10 02:02:00,73.8,72.3,30.10,SSE,164,0.0,0.0,95,0.00,,,0.00,meteohub,2013-06-10 06:02:00,
2013-06-10 02:07:00,73.6,72.1,30.10,SSE,164,0.0,2.0,95,0.00,,,0.00,meteohub,2013-06-10 06:07:00,
2013-06-10 02:12:00,73.6,72.1,30.09,SSE,164,0.0,2.0,95,0.00,,,0.00,meteohub,2013-06-10 06:12:00,
2013-06-10 02:17:00,73.4,72.0,30.09,SSE,164,0.0,2.0,95,0.00,,,0.00,meteohub,2013-06-10 06:17:00,
2013-06-10 02:22:00,73.4,72.1,30.09,SSE,164,0.0,1.0,96,0.00,,,0.00,meteohub,2013-06-10 06:22:00,
2013-06-10 02:27:00,73.2,72.0,30.09,SSE,164,0.0,1.0,96,0.00,,,0.00,meteohub,2013-06-10 06:27:00,
2013-06-10 02:37:00,73.2,72.0,30.09,SSE,164,0.0,0.0,96,0.00,,,0.00,meteohub,2013-06-10 06:37:00,
2013-06-10 02:42:00,73.0,71.8,30.09,SSE,164,0.0,0.0,96,0.00,,,0.00,meteohub,2013-06-10 06:42:00,
2013-06-10 02:47:00,73.0,71.8,30.09,SSE,164,0.0,0.0,96,0.00,,,0.00,meteohub,2013-06-10 06:47:00,
2013-06-10 02:57:00,72.7,71.4,30.08,SSE,164,0.0,0.0,96,0.00,,,0.00,meteohub,2013-06-10 06:57:00,
2013-06-10 03:02:00,72.7,71.4,30.08,SSE,164,0.0,0.0,96,0.00,,,0.00,meteohub,2013-06-10 07:02:00,
2013-06-10 03:12:00,72.3,71.1,30.08,SSE,164,0.0,0.0,96,0.00,,,0.00,meteohub,2013-06-10 07:12:00,
2013-06-10 03:17:00,72.3,71.4,30.08,SSE,164,0.0,0.0,97,0.00,,,0.00,meteohub,2013-06-10 07:17:00,
2013-06-10 03:22:00,72.5,71.6,30.08,SSE,164,0.0,0.0,97,0.00,,,0.00,meteohub,2013-06-10 07:22:00,
2013-06-10 03:32:00,72.7,71.8,30.07,SSE,164,0.0,0.0,97,0.00,,,0.00,meteohub,2013-06-10 07:32:00,
2013-06-10 03:37:00,72.7,71.8,30.07,SSE,164,0.0,4.0,97,0.00,,,0.00,meteohub,2013-06-10 07:37:00,
2013-06-10 03:42:00,72.7,71.8,30.07,SSE,164,0.0,4.0,97,0.00,,,0.00,meteohub,2013-06-10 07:42:00,
2013-06-10 03:47:00,72.9,72.0,30.07,SSE,164,0.0,4.0,97,0.00,,,0.00,meteohub,2013-06-10 07:47:00,
2013-06-10 03:52:00,73.0,72.5,30.07,SSE,164,2.0,4.0,98,0.00,,,0.00,meteohub,2013-06-10 07:52:00,
2013-06-10 03:57:00,73.0,72.5,30.07,SSE,164,0.0,4.0,98,0.00,,,0.00,meteohub,2013-06-10 07:57:00,
2013-06-10 04:02:00,73.2,72.7,30.07,SSE,164,0.0,4.0,98,0.00,,,0.00,meteohub,2013-06-10 08:02:00,
2013-06-10 04:07:00,73.2,72.3,30.06,SSE,164,0.0,4.0,97,0.00,,,0.00,meteohub,2013-06-10 08:07:00,
2013-06-10 04:12:00,73.2,72.3,30.07,SSE,164,0.0,4.0,97,0.00,,,0.00,meteohub,2013-06-10 08:12:00,
2013-06-10 04:22:00,73.4,72.5,30.06,SSE,164,1.0,4.0,97,0.00,,,0.00,meteohub,2013-06-10 08:22:00,
2013-06-10 04:27:00,73.6,72.7,30.06,SSE,164,0.0,4.0,97,0.00,,,0.00,meteohub,2013-06-10 08:27:00,
2013-06-10 04:32:00,73.6,72.7,30.07,SSE,164,0.0,5.0,97,0.00,,,0.00,meteohub,2013-06-10 08:32:00,
2013-06-10 04:37:00,73.6,72.7,30.07,SSE,164,0.0,5.0,97,0.00,,,0.00,meteohub,2013-06-10 08:37:00,
2013-06-10 04:47:00,73.8,72.9,30.07,SSE,164,0.0,6.0,97,0.00,,,0.00,meteohub,2013-06-10 08:47:00,
2013-06-10 04:52:00,73.8,72.9,30.07,SSE,164,4.0,6.0,97,0.00,,,0.00,meteohub,2013-06-10 08:52:00,
2013-06-10 04:57:00,73.8,72.9,30.07,SSE,164,1.0,5.0,97,0.00,,,0.00,meteohub,2013-06-10 08:57:00,
2013-06-10 05:02:00,73.8,72.9,30.07,SSE,164,4.0,9.0,97,0.00,,,0.00,meteohub,2013-06-10 09:02:00,
2013-06-10 05:12:00,73.9,73.0,30.07,SSE,164,0.0,9.0,97,0.00,,,0.00,meteohub,2013-06-10 09:12:00,
2013-06-10 05:17:00,73.9,73.0,30.07,SSE,164,2.0,5.0,97,0.00,,,0.00,meteohub,2013-06-10 09:17:00,
2013-06-10 05:22:00,73.9,73.0,30.07,SSE,164,0.0,5.0,97,0.00,,,0.00,meteohub,2013-06-10 09:22:00,
2013-06-10 05:27:00,73.9,73.0,30.07,SSE,164,2.0,5.0,97,0.00,,,0.00,meteohub,2013-06-10 09:27:00,
2013-06-10 05:32:00,73.9,73.0,30.08,SSE,164,4.0,5.0,97,0.00,,,0.00,meteohub,2013-06-10 09:32:00,
2013-06-10 05:37:00,73.9,73.0,30.07,SSE,164,0.0,5.0,97,0.00,,,0.00,meteohub,2013-06-10 09:37:00,
2013-06-10 05:47:00,73.9,73.0,30.07,SSE,164,2.0,5.0,97,0.00,,,0.00,meteohub,2013-06-10 09:47:00,
2013-06-10 05:52:00,73.9,73.0,30.07,SSE,164,0.0,5.0,97,0.00,,,0.00,meteohub,2013-06-10 09:52:00,
2013-06-10 06:02:00,73.9,73.0,30.08,SSE,164,1.0,6.0,97,0.00,,,0.00,meteohub,2013-06-10 10:02:00,
2013-06-10 06:07:00,73.9,73.0,30.08,SSE,164,0.0,2.0,97,0.00,,,0.00,meteohub,2013-06-10 10:07:00,
2013-06-10 06:12:00,73.9,73.0,30.08,SSE,164,0.0,4.0,97,0.00,,,0.00,meteohub,2013-06-10 10:12:00,
2013-06-10 06:17:00,73.9,73.0,30.09,SSE,164,0.0,4.0,97,0.00,,,0.00,meteohub,2013-06-10 10:17:00,
2013-06-10 06:22:00,73.8,72.9,30.09,SSE,164,0.0,2.0,97,0.00,,,0.00,meteohub,2013-06-10 10:22:00,
2013-06-10 06:32:00,73.8,72.9,30.09,SSE,164,0.0,0.0,97,0.00,,,0.00,meteohub,2013-06-10 10:32:00,
2013-06-10 06:37:00,73.8,72.9,30.09,SSE,164,0.0,0.0,97,0.00,,,0.00,meteohub,2013-06-10 10:37:00,
2013-06-10 06:42:00,73.8,72.9,30.09,SSE,164,0.0,0.0,97,0.00,,,0.00,meteohub,2013-06-10 10:42:00,
2013-06-10 06:47:00,73.8,72.9,30.09,SSE,164,0.0,2.0,97,0.00,,,0.00,meteohub,2013-06-10 10:47:00,
2013-06-10 06:52:00,73.8,72.9,30.09,SSE,164,0.0,2.0,97,0.00,,,0.00,meteohub,2013-06-10 10:52:00,
2013-06-10 07:02:00,73.9,73.0,30.09,SSE,164,0.0,2.0,97,0.00,,,0.00,meteohub,2013-06-10 11:02:00,
2013-06-10 07:07:00,73.9,73.0,30.10,SSE,163,0.0,2.0,97,0.00,,,0.00,meteohub,2013-06-10 11:07:00,
2013-06-10 07:17:00,74.1,73.2,30.10,SSE,164,0.0,2.0,97,0.00,,,0.00,meteohub,2013-06-10 11:17:00,
2013-06-10 07:22:00,74.5,73.9,30.10,SSE,164,5.0,5.0,98,0.00,,,0.00,meteohub,2013-06-10 11:22:00,
2013-06-10 07:27:00,74.7,74.1,30.10,SSE,164,0.0,5.0,98,0.00,,,0.00,meteohub,2013-06-10 11:27:00,
2013-06-10 07:32:00,74.8,73.9,30.10,SSE,163,0.0,5.0,97,0.00,,,0.00,meteohub,2013-06-10 11:32:00,
2013-06-10 07:37:00,74.8,73.9,30.10,SSE,164,1.0,5.0,97,0.00,,,0.00,meteohub,2013-06-10 11:37:00,
2013-06-10 07:47:00,75.2,73.9,30.10,SSE,164,0.0,6.0,96,0.00,,,0.00,meteohub,2013-06-10 11:47:00,
2013-06-10 07:52:00,75.4,74.1,30.10,SSE,164,0.0,6.0,96,0.00,,,0.00,meteohub,2013-06-10 11:52:00,
2013-06-10 07:57:00,75.6,73.9,30.10,South,183,1.0,6.0,95,0.00,,,0.00,meteohub,2013-06-10 11:57:00,
2013-06-10 08:02:00,75.9,74.3,30.10,South,179,0.0,7.0,95,0.00,,,0.00,meteohub,2013-06-10 12:02:00,
2013-06-10 08:07:00,75.9,74.3,30.10,SSE,165,0.0,7.0,95,0.00,,,0.00,meteohub,2013-06-10 12:07:00,
2013-06-10 08:12:00,76.3,74.5,30.10,SSE,166,4.0,7.0,94,0.00,,,0.00,meteohub,2013-06-10 12:12:00,
2013-06-10 08:17:00,76.5,74.7,30.10,South,188,4.0,7.0,94,0.00,,,0.00,meteohub,2013-06-10 12:17:00,
2013-06-10 08:22:00,76.6,74.8,30.10,SSW,202,4.0,8.0,94,0.00,,,0.00,meteohub,2013-06-10 12:22:00,
2013-06-10 08:27:00,76.8,74.7,30.10,SW,215,3.0,9.0,93,0.00,,,0.00,meteohub,2013-06-10 12:27:00,
2013-06-10 08:32:00,77.4,75.2,30.10,South,186,4.0,9.0,93,0.00,,,0.00,meteohub,2013-06-10 12:32:00,
2013-06-10 08:37:00,77.5,75.0,30.10,South,187,5.0,9.0,92,0.00,,,0.00,meteohub,2013-06-10 12:37:00,
2013-06-10 08:42:00,77.9,75.0,30.11,South,173,5.0,10.0,91,0.00,,,0.00,meteohub,2013-06-10 12:42:00,
2013-06-10 08:47:00,78.3,75.4,30.11,South,180,5.0,11.0,91,0.00,,,0.00,meteohub,2013-06-10 12:47:00,
2013-06-10 08:52:00,78.6,75.4,30.11,SW,232,0.0,11.0,90,0.00,,,0.00,meteohub,2013-06-10 12:52:00,
2013-06-10 08:57:00,79.2,75.6,30.11,South,187,3.0,11.0,89,0.00,,,0.00,meteohub,2013-06-10 12:57:00,
2013-06-10 09:07:00,79.9,75.0,30.11,SE,133,5.0,11.0,85,0.00,,,0.00,meteohub,2013-06-10 13:07:00,
2013-06-10 09:12:00,79.7,74.8,30.11,SSW,209,3.0,12.0,85,0.00,,,0.00,meteohub,2013-06-10 13:12:00,
2013-06-10 09:17:00,79.5,74.3,30.11,WSW,240,8.0,12.0,84,0.00,,,0.00,meteohub,2013-06-10 13:17:00,
2013-06-10 09:22:00,79.7,74.5,30.11,SSW,201,7.0,12.0,84,0.00,,,0.00,meteohub,2013-06-10 13:22:00,
2013-06-10 09:32:00,80.8,74.8,30.11,SW,221,6.0,12.0,82,0.00,,,0.00,meteohub,2013-06-10 13:32:00,
2013-06-10 09:42:00,81.7,74.8,30.11,SSW,206,8.0,11.0,80,0.00,,,0.00,meteohub,2013-06-10 13:42:00,
2013-06-10 09:47:00,82.0,75.6,30.11,South,186,2.0,11.0,81,0.00,,,0.00,meteohub,2013-06-10 13:47:00,
2013-06-10 09:52:00,82.0,74.8,30.11,WNW,299,4.0,11.0,79,0.00,,,0.00,meteohub,2013-06-10 13:52:00,
2013-06-10 10:02:00,82.2,75.0,30.11,South,171,0.0,11.0,79,0.00,,,0.00,meteohub,2013-06-10 14:02:00,
2013-06-10 10:07:00,82.9,75.0,30.10,South,188,4.0,12.0,77,0.00,,,0.00,meteohub,2013-06-10 14:07:00,
2013-06-10 10:17:00,83.7,74.5,30.10,SSW,213,7.0,12.0,74,0.00,,,0.00,meteohub,2013-06-10 14:17:00,
2013-06-10 10:22:00,83.8,74.7,30.10,SSW,194,3.0,12.0,74,0.00,,,0.00,meteohub,2013-06-10 14:22:00,
2013-06-10 10:27:00,83.8,75.0,30.10,SSW,207,4.0,12.0,75,0.00,,,0.00,meteohub,2013-06-10 14:27:00,
2013-06-10 10:37:00,84.6,75.4,30.10,South,190,7.0,11.0,74,0.00,,,0.00,meteohub,2013-06-10 14:37:00,
2013-06-10 10:47:00,84.9,75.7,30.10,SSE,159,2.0,14.0,74,0.00,,,0.00,meteohub,2013-06-10 14:47:00,
2013-06-10 10:52:00,85.3,74.3,30.10,WNW,292,7.0,14.0,70,0.00,,,0.00,meteohub,2013-06-10 14:52:00,
2013-06-10 10:57:00,84.9,73.6,30.10,SW,233,4.0,14.0,69,0.00,,,0.00,meteohub,2013-06-10 14:57:00,
2013-06-10 11:07:00,85.6,73.9,30.10,South,173,9.0,12.0,68,0.00,,,0.00,meteohub,2013-06-10 15:07:00,
2013-06-10 11:17:00,86.5,74.7,30.10,SSW,210,4.0,13.0,68,0.00,,,0.00,meteohub,2013-06-10 15:17:00,
2013-06-10 11:27:00,86.5,74.7,30.09,SSE,157,3.0,11.0,68,0.00,,,0.00,meteohub,2013-06-10 15:27:00,
2013-06-10 11:32:00,86.7,74.8,30.09,South,181,3.0,12.0,68,0.00,,,0.00,meteohub,2013-06-10 15:32:00,
2013-06-10 11:37:00,86.5,74.7,30.09,SSW,197,9.0,14.0,68,0.00,,,0.00,meteohub,2013-06-10 15:37:00,
2013-06-10 11:47:00,86.0,75.0,30.09,SSW,212,7.0,14.0,70,0.00,,,0.00,meteohub,2013-06-10 15:47:00,
2013-06-10 11:52:00,86.5,74.3,30.09,SW,235,6.0,10.0,67,0.00,,,0.00,meteohub,2013-06-10 15:52:00,
2013-06-10 11:57:00,86.5,74.3,30.09,SW,225,4.0,10.0,67,0.00,,,0.00,meteohub,2013-06-10 15:57:00,
2013-06-10 12:02:00,86.4,73.2,30.09,SW,223,4.0,10.0,65,0.00,,,0.00,meteohub,2013-06-10 16:02:00,
2013-06-10 12:07:00,86.2,73.9,30.09,SSW,197,1.0,10.0,67,0.00,,,0.00,meteohub,2013-06-10 16:07:00,
2013-06-10 12:12:00,86.4,74.1,30.09,SSW,194,5.0,10.0,67,0.00,,,0.00,meteohub,2013-06-10 16:12:00,
2013-06-10 12:17:00,86.4,74.5,30.09,South,183,5.0,10.0,68,0.00,,,0.00,meteohub,2013-06-10 16:17:00,
2013-06-10 12:22:00,86.4,76.3,30.09,South,188,4.0,7.0,72,0.00,,,0.00,meteohub,2013-06-10 16:22:00,
2013-06-10 12:32:00,88.0,73.4,30.08,SW,217,4.0,11.0,62,0.00,,,0.00,meteohub,2013-06-10 16:32:00,
2013-06-10 12:37:00,88.2,73.4,30.08,SW,230,2.0,11.0,62,0.00,,,0.00,meteohub,2013-06-10 16:37:00,
2013-06-10 12:42:00,88.5,73.8,30.08,South,184,5.0,10.0,62,0.00,,,0.00,meteohub,2013-06-10 16:42:00,
2013-06-10 12:47:00,88.7,75.9,30.08,SSE,160,5.0,11.0,66,0.00,,,0.00,meteohub,2013-06-10 16:47:00,
2013-06-10 12:52:00,88.7,73.6,30.08,SSW,209,5.0,11.0,61,0.00,,,0.00,meteohub,2013-06-10 16:52:00,
2013-06-10 12:57:00,88.3,73.6,30.08,WSW,244,4.0,11.0,62,0.00,,,0.00,meteohub,2013-06-10 16:57:00,
2013-06-10 13:07:00,89.1,76.6,30.07,South,175,2.0,11.0,67,0.00,,,0.00,meteohub,2013-06-10 17:07:00,
2013-06-10 13:12:00,89.1,74.3,30.07,SSW,213,6.0,10.0,62,0.00,,,0.00,meteohub,2013-06-10 17:12:00,
2013-06-10 13:22:00,88.5,73.8,30.07,SSE,165,5.0,10.0,62,0.00,,,0.00,meteohub,2013-06-10 17:22:00,
2013-06-10 13:27:00,88.9,74.1,30.07,SW,229,4.0,10.0,62,0.00,,,0.00,meteohub,2013-06-10 17:27:00,
2013-06-10 13:37:00,88.9,77.4,30.07,SE,129,1.0,10.0,69,0.00,,,0.00,meteohub,2013-06-10 17:37:00,
2013-06-10 13:42:00,88.2,77.5,30.07,SSE,153,7.0,10.0,71,0.00,,,0.00,meteohub,2013-06-10 17:42:00,
2013-06-10 13:47:00,88.2,79.2,30.07,ESE,109,6.0,11.0,75,0.00,,,0.00,meteohub,2013-06-10 17:47:00,
2013-06-10 13:52:00,88.5,79.5,30.07,SSE,149,6.0,11.0,75,0.00,,,0.00,meteohub,2013-06-10 17:52:00,
2013-06-10 13:57:00,88.2,78.4,30.07,SE,130,5.0,11.0,73,0.00,,,0.00,meteohub,2013-06-10 17:57:00,
2013-06-10 14:07:00,86.7,77.0,30.06,East,101,4.0,12.0,73,0.00,,,0.00,meteohub,2013-06-10 18:07:00,
2013-06-10 14:12:00,86.2,77.7,30.06,ESE,110,7.0,12.0,76,0.00,,,0.00,meteohub,2013-06-10 18:12:00,
2013-06-10 14:17:00,85.8,77.0,30.06,SE,146,4.0,10.0,75,0.00,,,0.00,meteohub,2013-06-10 18:17:00,
2013-06-10 14:22:00,86.0,78.3,30.06,South,181,9.0,10.0,78,0.00,,,0.00,meteohub,2013-06-10 18:22:00,
2013-06-10 14:27:00,86.4,77.5,30.05,ESE,119,3.0,16.0,75,0.00,,,0.00,meteohub,2013-06-10 18:27:00,
2013-06-10 14:32:00,86.2,77.7,30.05,SE,132,5.0,16.0,76,0.00,,,0.00,meteohub,2013-06-10 18:32:00,
2013-06-10 14:42:00,85.8,76.6,30.06,SE,144,11.0,15.0,74,0.00,,,0.00,meteohub,2013-06-10 18:42:00,
2013-06-10 14:47:00,85.6,76.5,30.05,SE,130,3.0,16.0,74,0.00,,,0.00,meteohub,2013-06-10 18:47:00,
2013-06-10 14:52:00,86.2,77.4,30.05,SSE,160,12.0,16.0,75,0.00,,,0.00,meteohub,2013-06-10 18:52:00,
2013-06-10 14:57:00,85.5,76.3,30.05,East,90,4.0,15.0,74,0.00,,,0.00,meteohub,2013-06-10 18:57:00,
2013-06-10 15:07:00,85.8,77.0,30.04,SE,130,2.0,17.0,75,0.00,,,0.00,meteohub,2013-06-10 19:07:00,
2013-06-10 15:12:00,85.6,76.8,30.04,East,80,10.0,17.0,75,0.00,,,0.00,meteohub,2013-06-10 19:12:00,
2013-06-10 15:22:00,85.8,76.6,30.04,SE,131,7.0,19.0,74,0.00,,,0.00,meteohub,2013-06-10 19:22:00,
2013-06-10 15:27:00,86.2,76.5,30.04,SSE,165,6.0,15.0,73,0.00,,,0.00,meteohub,2013-06-10 19:27:00,
2013-06-10 15:32:00,86.4,76.6,30.04,South,173,9.0,15.0,73,0.00,,,0.00,meteohub,2013-06-10 19:32:00,
2013-06-10 15:42:00,85.6,75.6,30.04,SE,140,7.0,14.0,72,0.00,,,0.00,meteohub,2013-06-10 19:42:00,
2013-06-10 15:47:00,85.1,75.4,30.04,SSE,161,5.0,17.0,73,0.00,,,0.00,meteohub,2013-06-10 19:47:00,
2013-06-10 15:52:00,85.1,76.3,30.04,South,169,6.0,17.0,75,0.00,,,0.00,meteohub,2013-06-10 19:52:00,
2013-06-10 15:57:00,85.3,76.5,30.04,SE,125,3.0,13.0,75,0.00,,,0.00,meteohub,2013-06-10 19:57:00,
2013-06-10 16:07:00,86.2,77.0,30.04,SSE,155,8.0,15.0,74,0.00,,,0.00,meteohub,2013-06-10 20:07:00,
2013-06-10 16:17:00,87.1,77.0,30.04,SE,129,7.0,15.0,72,0.00,,,0.00,meteohub,2013-06-10 20:17:00,
2013-06-10 16:22:00,86.5,75.9,30.03,ESE,102,3.0,15.0,71,0.00,,,0.00,meteohub,2013-06-10 20:22:00,
2013-06-10 16:32:00,86.4,75.4,30.03,SE,136,9.0,15.0,70,0.00,,,0.00,meteohub,2013-06-10 20:32:00,
2013-06-10 16:42:00,85.8,75.4,30.02,SE,145,5.0,11.0,71,0.00,,,0.00,meteohub,2013-06-10 20:42:00,
2013-06-10 16:47:00,85.6,75.6,30.02,South,182,8.0,11.0,72,0.00,,,0.00,meteohub,2013-06-10 20:47:00,
2013-06-10 16:57:00,85.5,75.7,30.02,SSW,194,2.0,12.0,73,0.00,,,0.00,meteohub,2013-06-10 20:57:00,
2013-06-10 17:02:00,85.5,75.7,30.02,SE,128,8.0,12.0,73,0.00,,,0.00,meteohub,2013-06-10 21:02:00,
2013-06-10 17:07:00,84.9,75.2,30.02,SSE,148,8.0,9.0,73,0.00,,,0.00,meteohub,2013-06-10 21:07:00,
2013-06-10 17:12:00,84.7,75.2,30.02,SE,136,4.0,12.0,73,0.00,,,0.00,meteohub,2013-06-10 21:12:00,
2013-06-10 17:17:00,84.6,75.7,30.02,SSE,160,7.0,12.0,75,0.00,,,0.00,meteohub,2013-06-10 21:17:00,
2013-06-10 17:22:00,84.6,75.4,30.02,SSE,153,10.0,14.0,74,0.00,,,0.00,meteohub,2013-06-10 21:22:00,
2013-06-10 17:27:00,84.4,75.2,30.01,SSE,165,6.0,16.0,74,0.00,,,0.00,meteohub,2013-06-10 21:27:00,
2013-06-10 17:32:00,84.4,75.2,30.01,SE,144,4.0,16.0,74,0.00,,,0.00,meteohub,2013-06-10 21:32:00,
2013-06-10 17:42:00,84.7,75.2,30.01,South,182,9.0,12.0,73,0.00,,,0.00,meteohub,2013-06-10 21:42:00,
2013-06-10 17:47:00,84.9,74.8,30.01,South,185,6.0,10.0,72,0.00,,,0.00,meteohub,2013-06-10 21:47:00,
2013-06-10 17:57:00,84.2,74.7,30.01,SE,142,5.0,18.0,73,0.00,,,0.00,meteohub,2013-06-10 21:57:00,
2013-06-10 18:07:00,83.1,73.9,30.01,South,186,2.0,12.0,74,0.00,,,0.00,meteohub,2013-06-10 22:07:00,
2013-06-10 18:12:00,82.9,73.8,30.01,SSE,160,7.0,13.0,74,0.00,,,0.00,meteohub,2013-06-10 22:12:00,
2013-06-10 18:17:00,82.8,74.5,30.01,SSE,157,3.0,13.0,76,0.00,,,0.00,meteohub,2013-06-10 22:17:00,
2013-06-10 18:27:00,82.2,73.9,30.01,SSE,167,5.0,10.0,76,0.00,,,0.00,meteohub,2013-06-10 22:27:00,
2013-06-10 18:32:00,82.0,74.1,30.01,South,169,6.0,13.0,77,0.00,,,0.00,meteohub,2013-06-10 22:32:00,
2013-06-10 18:37:00,81.9,74.3,30.01,South,178,4.0,13.0,78,0.00,,,0.00,meteohub,2013-06-10 22:37:00,
2013-06-10 18:42:00,81.9,74.3,30.01,South,174,8.0,12.0,78,0.00,,,0.00,meteohub,2013-06-10 22:42:00,
2013-06-10 18:47:00,81.9,74.3,30.01,SSW,195,4.0,11.0,78,0.00,,,0.00,meteohub,2013-06-10 22:47:00,
2013-06-10 18:52:00,81.9,74.7,30.01,SSE,158,3.0,11.0,79,0.00,,,0.00,meteohub,2013-06-10 22:52:00,
2013-06-10 18:57:00,81.9,74.7,30.02,South,182,1.0,11.0,79,0.00,,,0.00,meteohub,2013-06-10 22:57:00,
2013-06-10 19:07:00,81.7,74.5,30.02,SSE,157,3.0,8.0,79,0.00,,,0.00,meteohub,2013-06-10 23:07:00,
2013-06-10 19:12:00,81.9,75.0,30.03,South,172,1.0,8.0,80,0.00,,,0.00,meteohub,2013-06-10 23:12:00,
2013-06-10 19:22:00,81.9,75.0,30.02,SSE,161,6.0,8.0,80,0.00,,,0.00,meteohub,2013-06-10 23:22:00,
2013-06-10 19:27:00,81.7,74.5,30.02,SSE,165,6.0,10.0,79,0.00,,,0.00,meteohub,2013-06-10 23:27:00,
2013-06-10 19:37:00,81.3,74.5,30.02,South,176,4.0,13.0,80,0.00,,,0.00,meteohub,2013-06-10 23:37:00,
2013-06-10 19:47:00,81.1,74.7,30.03,South,174,6.0,13.0,81,0.00,,,0.00,meteohub,2013-06-10 23:47:00,
2013-06-10 19:52:00,81.0,74.7,30.03,SSE,163,5.0,13.0,81,0.00,,,0.00,meteohub,2013-06-10 23:52:00,
2013-06-10 20:02:00,80.6,74.7,30.04,South,182,4.0,11.0,82,0.00,,,0.00,meteohub,2013-06-11 00:02:00,
2013-06-10 20:12:00,80.4,74.5,30.04,South,185,3.0,8.0,82,0.00,,,0.00,meteohub,2013-06-11 00:12:00,
2013-06-10 20:17:00,80.2,74.7,30.04,SSW,201,3.0,8.0,83,0.00,,,0.00,meteohub,2013-06-11 00:17:00,
2013-06-10 20:22:00,80.2,75.0,30.04,SSW,201,0.0,6.0,84,0.00,,,0.00,meteohub,2013-06-11 00:22:00,
2013-06-10 20:27:00,80.2,75.0,30.04,SSW,200,1.0,6.0,84,0.00,,,0.00,meteohub,2013-06-11 00:27:00,
2013-06-10 20:32:00,79.9,74.7,30.04,SSW,201,0.0,5.0,84,0.00,,,0.00,meteohub,2013-06-11 00:32:00,
2013-06-10 20:37:00,79.9,75.7,30.03,SSW,200,0.0,4.0,87,0.00,,,0.00,meteohub,2013-06-11 00:37:00,
2013-06-10 20:42:00,79.5,74.7,30.03,SSW,201,0.0,3.0,85,0.00,,,0.00,meteohub,2013-06-11 00:42:00,
2013-06-10 20:47:00,79.3,75.2,30.03,SSW,200,0.0,0.0,87,0.00,,,0.00,meteohub,2013-06-11 00:47:00,
2013-06-10 20:52:00,79.2,75.0,30.03,SSW,200,0.0,2.0,87,0.00,,,0.00,meteohub,2013-06-11 00:52:00,
2013-06-10 20:57:00,79.0,74.5,30.04,SSW,201,0.0,3.0,86,0.00,,,0.00,meteohub,2013-06-11 00:57:00,
2013-06-10 21:02:00,78.6,74.1,30.04,SSW,201,0.0,3.0,86,0.00,,,0.00,meteohub,2013-06-11 01:02:00,
2013-06-10 21:12:00,78.3,74.5,30.04,SSW,200,0.0,2.0,88,0.00,,,0.00,meteohub,2013-06-11 01:12:00,
2013-06-10 21:17:00,78.1,73.9,30.05,SSW,201,2.0,2.0,87,0.00,,,0.00,meteohub,2013-06-11 01:17:00,
2013-06-10 21:22:00,77.9,73.4,30.05,SSW,201,0.0,4.0,86,0.00,,,0.00,meteohub,2013-06-11 01:22:00,
2013-06-10 21:32:00,77.7,72.9,30.05,SSW,200,0.0,4.0,85,0.00,,,0.00,meteohub,2013-06-11 01:32:00,
2013-06-10 21:37:00,77.7,73.2,30.05,SSW,201,0.0,2.0,86,0.00,,,0.00,meteohub,2013-06-11 01:37:00,
2013-06-10 21:47:00,77.5,73.4,30.05,SSW,200,0.0,4.0,87,0.00,,,0.00,meteohub,2013-06-11 01:47:00,
2013-06-10 21:57:00,77.4,73.2,30.06,SSW,200,0.0,4.0,87,0.00,,,0.00,meteohub,2013-06-11 01:57:00,
2013-06-10 22:07:00,77.2,73.4,30.06,SSW,200,0.0,0.0,88,0.00,,,0.00,meteohub,2013-06-11 02:07:00,
2013-06-10 22:17:00,76.8,73.4,30.06,SSW,200,0.0,0.0,89,0.00,,,0.00,meteohub,2013-06-11 02:17:00,
2013-06-10 22:22:00,76.8,73.4,30.06,SSW,200,0.0,2.0,89,0.00,,,0.00,meteohub,2013-06-11 02:22:00,
2013-06-10 22:27:00,76.6,73.2,30.06,SSW,200,0.0,2.0,89,0.00,,,0.00,meteohub,2013-06-11 02:27:00,
2013-06-10 22:37:00,76.5,73.6,30.07,SSW,200,0.0,0.0,91,0.00,,,0.00,meteohub,2013-06-11 02:37:00,
2013-06-10 22:42:00,76.3,73.4,30.07,SSW,200,0.0,0.0,91,0.00,,,0.00,meteohub,2013-06-11 02:42:00,
2013-06-10 22:52:00,76.1,73.2,30.07,SSW,200,0.0,2.0,91,0.00,,,0.00,meteohub,2013-06-11 02:52:00,
2013-06-10 22:57:00,76.1,73.2,30.07,SSW,200,1.0,2.0,91,0.00,,,0.00,meteohub,2013-06-11 02:57:00,
2013-06-10 23:02:00,76.1,73.2,30.07,SSW,201,0.0,2.0,91,0.00,,,0.00,meteohub,2013-06-11 03:02:00,
2013-06-10 23:07:00,76.1,73.2,30.07,SSW,200,0.0,2.0,91,0.00,,,0.00,meteohub,2013-06-11 03:07:00,
2013-06-10 23:12:00,76.1,73.2,30.07,SSW,200,0.0,2.0,91,0.00,,,0.00,meteohub,2013-06-11 03:12:00,
2013-06-10 23:22:00,76.3,73.0,30.07,SSW,200,0.0,4.0,90,0.00,,,0.00,meteohub,2013-06-11 03:22:00,
2013-06-10 23:27:00,76.3,73.0,30.07,SSW,200,0.0,4.0,90,0.00,,,0.00,meteohub,2013-06-11 03:27:00,
2013-06-10 23:37:00,76.3,73.0,30.07,SSW,200,0.0,3.0,90,0.00,,,0.00,meteohub,2013-06-11 03:37:00,
2013-06-10 23:42:00,76.1,72.9,30.07,SSW,200,0.0,3.0,90,0.00,,,0.00,meteohub,2013-06-11 03:42:00,
2013-06-10 23:52:00,75.9,72.9,30.07,SSW,200,2.0,4.0,90,0.00,,,0.00,meteohub,2013-06-11 03:52:00,
2013-06-10 23:57:00,75.9,72.5,30.07,SSW,200,2.0,4.0,89,0.00,,,0.00,meteohub,2013-06-11 03:57:00,